User: anonymous   Login
Location: Unspecified
(41.1637°N, 0.0000°E)
Time: 03:02:49
(UTC+00:00)
Language:

LO-87 - Orbit

View from above orbital plane
View from above orbital plane
View from above satellite
View from above satellite

Ground track
Ground track

The orbit data is extracted from the following two-line orbital elements,

1 41557U 16033B   19233.79414757  .00000713  00000-0  29341-4 0  9991
2 41557  97.4172 320.9231 0015424  73.9558 286.3379 15.27312696179879
Epoch (UTC): 21 August 2019 19:03:34
Eccentricity: 0.0015424
inclination: 97.4172°
perigee height: 473 km
apogee height: 494 km
right ascension of ascending node: 320.9231°
argument of perigee: 73.9558°
revolutions per day: 15.27312696
mean anomaly at epoch: 286.3379°
orbit number at epoch: 17987

The dashed part of the orbit path shows where the satellite is in the earth's shadow,  

DLR